User: anonymous   Login
Location: Newark
(42.9277°N, 71.8621°W)
Time: 08:32:06
(UTC+00:00)
Language:

Explorer 11/Cluster Stage 4 - Orbit

View from above orbital plane
View from above orbital plane
View from above satellite
View from above satellite

Ground track
Ground track

The orbit data is extracted from the following two-line orbital elements,

1   107U 61013A   20150.74669538 +.00000297 +00000-0 +17758-4 0  9995
2   107 028.7916 287.1077 0546803 287.8163 066.3504 14.08964645963588
Epoch (UTC): 29 May 2020 17:55:14
Eccentricity: 0.0546803
inclination: 28.7916°
perigee height: 467 km
apogee height: 1259 km
right ascension of ascending node: 287.1077°
argument of perigee: 287.8163°
revolutions per day: 14.08964645
mean anomaly at epoch: 66.3504°
orbit number at epoch: 96358

The dashed part of the orbit path shows where the satellite is in the earth's shadow,  

DLR